Location: Malcolm X Square
(37.7810°N, 122.4297°W)
Time: 22:10:59
(UTC+00:00)

Cosmos 1484 Rocket - Pass Details

Date: 13 April 2024
Orbit: 480 x 525 km, 97.6° (Epoch: 20 May)

Event Time Altitude Azimuth Distance (km) Brightness Sun altitude
Rises 12:52:47 0° 5° (N) 2,568 6.6 -9.1°
Reaches altitude 10° 12:54:55 10° 359° (N) 1,676 5.5 -8.7°
Maximum altitude 12:58:22 46° 286° (WNW) 660 2.9 -8.1°
Drops below altitude 10° 13:01:46 10° 212° (SSW) 1,651 4.8 -7.5°
Sets 13:03:52 0° 206° (SSW) 2,524 5.8 -7.1°
Enters shadow 13:03:53 - 206° (SSW) 2,534 5.8 -7.1°
